When you browse on this site, cookies collect data to enhance your experience and personalize the content and advertising you see.
Visit our Privacy Policy to learn more. By continuing to use the site, you agree to this use of cookies and data.

Tiempo cada hora Linares

Hoy, 22 Septiembre, Martes

Tiempo Temperatura Precipitaciones Viento Presión Humedad
00:00 +19°C° 0 mm 0 mps 727 mmHg 44%
01:00 +19°C° 0 mm 0 mps 726 mmHg 45%
02:00 +19°C° 0 mm 0 mps 726 mmHg 46%
03:00 +18°C° 0 mm 0 mps 726 mmHg 47%
04:00 +18°C° 0 mm 0 mps 726 mmHg 48%
05:00 +18°C° 0 mm 0 mps 726 mmHg 49%
06:00 +17°C° 0 mm 0 mps 726 mmHg 48%
07:00 +19°C° 0 mm 0 mps 726 mmHg 43%
08:00 +21°C° 0 mm 0 mps 726 mmHg 38%
09:00 +23°C° 0 mm 0 mps 726 mmHg 33%
10:00 +26°C° 0 mm 1 mps 726 mmHg 31%
11:00 +28°C° 0 mm 2 mps 727 mmHg 28%
12:00 +29°C° 0 mm 3 mps 727 mmHg 28%
13:00 +30°C° 0 mm 3 mps 726 mmHg 28%
14:00 +30°C° 0 mm 4 mps 726 mmHg 28%
15:00 +30°C° 0 mm 4 mps 725 mmHg 27%
16:00 +29°C° 0 mm 4 mps 725 mmHg 30%
17:00 +28°C° 0 mm 4 mps 725 mmHg 32%
18:00 +27°C° 0 mm 3 mps 725 mmHg 34%
19:00 +26°C° 0 mm 3 mps 725 mmHg 37%
20:00 +25°C° 0 mm 2 mps 725 mmHg 40%
21:00 +24°C° 0 mm 2 mps 725 mmHg 42%
22:00 +24°C° 0 mm 2 mps 725 mmHg 45%
23:00 +23°C° 0 mm 2 mps 725 mmHg 48%

Mañana, 23 Septiembre, Miércoles

Tiempo Temperatura Precipitaciones Viento Presión Humedad
00:00 +21°C° 0 mm 2 mps 725 mmHg 51%
01:00 +21°C° 0 mm 2 mps 725 mmHg 56%
02:00 +21°C° 0 mm 1 mps 725 mmHg 60%
03:00 +20°C° 0 mm 1 mps 724 mmHg 65%
04:00 +20°C° 0 mm 1 mps 725 mmHg 66%
05:00 +20°C° 0 mm 1 mps 725 mmHg 68%
06:00 +19°C° 0 mm 1 mps 725 mmHg 70%
07:00 +21°C° 0 mm 1 mps 725 mmHg 63%
08:00 +22°C° 0 mm 1 mps 725 mmHg 56%
09:00 +24°C° 0 mm 2 mps 726 mmHg 50%
10:00 +25°C° 0 mm 3 mps 726 mmHg 45%
11:00 +27°C° 0 mm 5 mps 726 mmHg 41%
12:00 +28°C° 0 mm 7 mps 726 mmHg 37%
13:00 +28°C° 0 mm 7 mps 726 mmHg 38%
14:00 +29°C° 0 mm 7 mps 725 mmHg 39%
15:00 +29°C° 0 mm 7 mps 725 mmHg 39%
16:00 +28°C° 0 mm 6 mps 725 mmHg 43%
17:00 +27°C° 0 mm 5 mps 725 mmHg 47%
18:00 +26°C° 0 mm 4 mps 725 mmHg 51%
19:00 +25°C° 0 mm 4 mps 725 mmHg 56%
20:00 +24°C° 0 mm 3 mps 726 mmHg 60%
21:00 +23°C° 0 mm 2 mps 726 mmHg 65%
22:00 +21°C° 0 mm 2 mps 726 mmHg 67%
23:00 +22°C° 0 mm 1 mps 726 mmHg 70%

Pasado mañana, 24 Septiembre, Jueves

Tiempo Temperatura Precipitaciones Viento Presión Humedad
00:00 +21°C° 0 mm 1 mps 726 mmHg 72%
01:00 +21°C° 0 mm 1 mps 726 mmHg 75%
02:00 +20°C° 0 mm 1 mps 726 mmHg 78%
03:00 +20°C° 0 mm 1 mps 726 mmHg 81%
04:00 +19°C° 0 mm 1 mps 726 mmHg 84%
05:00 +19°C° 0 mm 1 mps 726 mmHg 87%
06:00 +19°C° 0 mm 1 mps 726 mmHg 91%
07:00 +20°C° 0 mm 1 mps 726 mmHg 83%
08:00 +21°C° 0 mm 2 mps 726 mmHg 76%
09:00 +24°C° 0 mm 3 mps 727 mmHg 68%
10:00 +25°C° 0 mm 3 mps 727 mmHg 61%
11:00 +27°C° 0 mm 4 mps 727 mmHg 53%
12:00 +28°C° 0 mm 5 mps 727 mmHg 46%
13:00 +29°C° 0 mm 5 mps 727 mmHg 43%
14:00 +29°C° 0 mm 6 mps 726 mmHg 41%
15:00 +30°C° 0 mm 6 mps 726 mmHg 38%
16:00 +29°C° 0 mm 5 mps 726 mmHg 41%
17:00 +28°C° 0 mm 5 mps 726 mmHg 43%
18:00 +27°C° 0 mm 4 mps 726 mmHg 45%
19:00 +26°C° 0 mm 4 mps 727 mmHg 50%
20:00 +25°C° 0 mm 3 mps 727 mmHg 55%
21:00 +22°C° 0 mm 3 mps 728 mmHg 60%
22:00 +22°C° 0 mm 3 mps 728 mmHg 62%
23:00 +21°C° 0 mm 3 mps 728 mmHg 65%

25 Septiembre, Viernes

Tiempo Temperatura Precipitaciones Viento Presión Humedad
00:00 +20°C° 0 mm 3 mps 728 mmHg 67%
01:00 +20°C° 0 mm 3 mps 728 mmHg 68%
02:00 +19°C° 0 mm 3 mps 727 mmHg 70%
03:00 +18°C° 0 mm 3 mps 727 mmHg 71%
04:00 +17°C° 0 mm 3 mps 727 mmHg 72%
05:00 +16°C° 0 mm 2 mps 728 mmHg 72%
06:00 +15°C° 0 mm 2 mps 728 mmHg 73%
07:00 +17°C° 0 mm 3 mps 728 mmHg 64%
08:00 +18°C° 0 mm 3 mps 729 mmHg 55%
09:00 +19°C° 0 mm 4 mps 729 mmHg 46%
10:00 +21°C° 0 mm 4 mps 729 mmHg 39%
11:00 +22°C° 0 mm 4 mps 730 mmHg 32%
12:00 +25°C° 0 mm 5 mps 730 mmHg 26%
13:00 +25°C° 0 mm 5 mps 730 mmHg 24%
14:00 +26°C° 0 mm 5 mps 729 mmHg 23%
15:00 +26°C° 0 mm 5 mps 729 mmHg 22%
16:00 +25°C° 0 mm 4 mps 729 mmHg 24%
17:00 +24°C° 0 mm 3 mps 730 mmHg 27%
18:00 +21°C° 0 mm 3 mps 730 mmHg 29%
19:00 +20°C° 0 mm 3 mps 730 mmHg 31%
20:00 +19°C° 0 mm 2 mps 731 mmHg 33%
21:00 +17°C° 0 mm 2 mps 731 mmHg 35%
22:00 +17°C° 0 mm 2 mps 731 mmHg 36%
23:00 +16°C° 0 mm 2 mps 731 mmHg 37%

26 Septiembre, Sábado

Tiempo Temperatura Precipitaciones Viento Presión Humedad
00:00 +15°C° 0 mm 1 mps 731 mmHg 38%
01:00 +15°C° 0 mm 2 mps 731 mmHg 39%
02:00 +14°C° 0 mm 2 mps 731 mmHg 41%
03:00 +14°C° 0 mm 2 mps 731 mmHg 42%
04:00 +13°C° 0 mm 2 mps 731 mmHg 44%
05:00 +13°C° 0 mm 2 mps 731 mmHg 46%
06:00 +12°C° 0 mm 2 mps 731 mmHg 48%
07:00 +13°C° 0 mm 3 mps 731 mmHg 43%
08:00 +15°C° 0 mm 4 mps 732 mmHg 38%
09:00 +18°C° 0 mm 4 mps 732 mmHg 33%
10:00 +19°C° 0 mm 4 mps 732 mmHg 30%
11:00 +21°C° 0 mm 4 mps 732 mmHg 26%
12:00 +24°C° 0 mm 3 mps 731 mmHg 22%
13:00 +24°C° 0 mm 3 mps 731 mmHg 21%
14:00 +25°C° 0 mm 3 mps 731 mmHg 20%
15:00 +25°C° 0 mm 3 mps 730 mmHg 19%
16:00 +24°C° 0 mm 3 mps 730 mmHg 22%
17:00 +22°C° 0 mm 3 mps 730 mmHg 24%
18:00 +21°C° 0 mm 3 mps 730 mmHg 27%
19:00 +19°C° 0 mm 3 mps 730 mmHg 30%
20:00 +18°C° 0 mm 2 mps 730 mmHg 34%
21:00 +17°C° 0 mm 2 mps 730 mmHg 38%
22:00 +16°C° 0 mm 2 mps 730 mmHg 40%
23:00 +16°C° 0 mm 2 mps 730 mmHg 42%

27 Septiembre, Domingo

Tiempo Temperatura Precipitaciones Viento Presión Humedad
00:00 +15°C° 0 mm 2 mps 729 mmHg 43%
01:00 +15°C° 0 mm 2 mps 729 mmHg 46%
02:00 +14°C° 0 mm 2 mps 729 mmHg 49%
03:00 +14°C° 0 mm 2 mps 728 mmHg 51%
04:00 +14°C° 0 mm 1 mps 728 mmHg 53%
05:00 +13°C° 0 mm 1 mps 728 mmHg 55%
06:00 +13°C° 0 mm 1 mps 728 mmHg 57%
07:00 +15°C° 0 mm 2 mps 728 mmHg 50%
08:00 +18°C° 0 mm 2 mps 728 mmHg 44%
09:00 +20°C° 0 mm 2 mps 729 mmHg 37%
10:00 +23°C° 0 mm 2 mps 728 mmHg 34%
11:00 +24°C° 0 mm 2 mps 728 mmHg 30%
12:00 +26°C° 0 mm 2 mps 728 mmHg 26%
13:00 +27°C° 0 mm 2 mps 728 mmHg 26%
14:00 +28°C° 0 mm 2 mps 727 mmHg 25%
15:00 +28°C° 0 mm 2 mps 727 mmHg 24%
16:00 +27°C° 0 mm 2 mps 727 mmHg 27%
17:00 +26°C° 0 mm 3 mps 727 mmHg 30%
18:00 +24°C° 0 mm 3 mps 726 mmHg 33%
19:00 +23°C° 0 mm 2 mps 727 mmHg 35%
20:00 +21°C° 0 mm 2 mps 727 mmHg 38%
21:00 +20°C° 0 mm 2 mps 727 mmHg 41%
22:00 +19°C° 0 mm 2 mps 727 mmHg 43%
23:00 +19°C° 0 mm 2 mps 727 mmHg 44%
Mostrar más